OSCAR 7 (AO-7) 1 07530U 74089B 26169.84572557 -.00000050 00000+0 -22316-4 0 9994 2 07530 101.9899 183.1097 0012589 127.0103 56.2077 12.53698116360729 PHASE 3B (AO-10) 1 14129U 83058B 26168.36952042 .00000190 00000+0 00000+0 0 9993 2 14129 25.9123 219.5345 6010777 115.7182 316.6307 2.05868747295495 UOSAT 2 (UO-11) 1 14781U 84021B 26169.63090029 .00000953 00000+0 10259-3 0 9995 2 14781 97.8058 135.1893 0007790 167.6265 192.5146 14.90786318257342 LUSAT (LO-19) 1 20442U 90005G 26169.50756887 .00000077 00000+0 44240-4 0 9997 2 20442 98.8849 191.3496 0011194 197.0729 163.0080 14.34123547902580 EYESAT A (AO-27) 1 22825U 93061C 26169.74797184 .00000072 00000+0 44201-4 0 9992 2 22825 98.6880 237.1610 0009544 95.7674 264.4597 14.30942648707226 ITAMSAT (IO-26) 1 22826U 93061D 26169.72691892 .00000075 00000+0 45080-4 0 9999 2 22826 98.6828 237.0576 0010059 80.9197 279.3124 14.31369569707539 RADIO ROSTO (RS15) 1 23439U 94085A 26169.80107356 -.00000048 00000+0 -14248-3 0 9996 2 23439 64.8179 300.6061 0155998 3.5777 356.6226 11.27583485296089 JAS-2 (FO-29) 1 24278U 96046B 26169.86373956 -.00000009 00000+0 23419-4 0 9991 2 24278 98.5238 18.5062 0350921 92.0938 272.0420 13.53274506473392 TECHSAT 1B (GO-32) 1 25397U 98043D 26169.75022169 .00000035 00000+0 35257-4 0 9999 2 25397 99.0067 162.5483 0001133 159.7201 200.4022 14.24428644451550 ISS (ZARYA) 1 25544U 98067A 26169.80206885 .00008155 00000+0 15439-3 0 9994 2 25544 51.6331 292.1003 0004667 202.2920 157.7867 15.49302471572009 PCSAT (NO-44) 1 26931U 01043C 26169.48637696 .00000076 00000+0 59455-4 0 9996 2 26931 67.0504 240.9116 0006080 264.6354 95.4054 14.31956504290637 SAUDISAT 1C (SO-50) 1 27607U 02058C 26169.36907802 .00000788 00000+0 11046-3 0 9993 2 27607 64.5511 125.3282 0075194 262.2562 97.0002 14.83049237264630 CUTE-1 (CO-55) 1 27844U 03031E 26169.72312841 .00000216 00000+0 11222-3 0 9993 2 27844 98.6736 178.2627 0009643 173.5600 186.5705 14.24336519191891 CUBESAT XI-IV (CO-57) 1 27848U 03031J 26168.93924090 .00000186 00000+0 10079-3 0 9999 2 27848 98.6765 177.2007 0009073 194.7196 165.3719 14.23621196191482 MOZHAETS 4 (RS22) 1 27939U 03042A 26169.85155837 .00001161 00000+0 18710-3 0 9993 2 27939 98.3465 354.2570 0009917 263.9004 208.4912 14.73471325215790 CUBESAT XI-V 1 28895U 05043F 26168.94617719 .00001113 00000+0 18286-3 0 9994 2 28895 98.2987 324.5839 0013704 198.2082 161.8635 14.72633352101868 CUTE-1.7+APD II (CO-65) 1 32785U 08021C 26169.70716628 .00004368 00000+0 27673-3 0 9995 2 32785 97.8275 151.1573 0009595 34.0332 326.1510 15.09462529985420 SEEDS II (CO-66) 1 32791U 08021J 26169.44123302 .00014056 00000+0 44622-3 0 9992 2 32791 97.7517 167.3987 0000890 357.5135 2.6101 15.32786684987483 YUBILEINY (RS30) 1 32953U 08025A 26169.78850128 -.00000001 00000+0 -76467-4 0 9996 2 32953 82.5036 354.4435 0018797 310.2054 49.7380 12.43179425819897 KKS-1 (KISEKI) 1 33499U 09002H 26169.80831867 .00001003 00000+0 12984-3 0 9994 2 33499 98.1189 92.2763 0006462 289.6073 70.4442 14.83127513936439 SWISSCUBE 1 35932U 09051B 26169.74226071 .00000745 00000+0 15677-3 0 9994 2 35932 98.4034 77.6577 0006063 197.6452 162.4539 14.62484142889382 BEESAT-1 1 35933U 09051C 26169.68405162 .00000636 00000+0 13739-3 0 9994 2 35933 98.3962 77.2309 0004309 211.2918 148.8026 14.61722602889409 ITUPSAT1 1 35935U 09051E 26169.19666220 .00000591 00000+0 13197-3 0 9994 2 35935 98.4047 75.9267 0006285 230.1057 129.9590 14.60442029888881 XIWANG-1 (HOPE-1) 1 36122U 09072B 26169.83986308 .00000375 00000+0 10985-2 0 9990 2 36122 100.4033 123.6462 0006888 227.4339 132.6193 13.16440680793222 O/OREOS (USA 219) 1 37224U 10062C 26169.80342157 .00001725 00000+0 16849-3 0 9996 2 37224 71.9701 76.6784 0012603 59.6862 300.5554 14.93749943116880 JUGNU 1 37839U 11058B 26169.70142228 .00000394 00000+0 66297-4 0 9994 2 37839 19.9619 299.2304 0018627 92.8225 295.0564 14.13777162759245 SRMSAT 1 37841U 11058D 26169.37117840 .00000354 00000+0 48168-4 0 9995 2 37841 19.9726 52.3001 0011756 216.7081 303.9733 14.11575778757985 STRAND-1 1 39090U 13009E 26169.72693088 .00000194 00000+0 79602-4 0 9992 2 39090 98.3923 349.9234 0007804 220.1282 139.9329 14.37163972697288 ZACUBE-1 (TSHEPISOSAT) 1 39417U 13066B 26169.34046199 .00002374 00000+0 18681-3 0 9992 2 39417 97.8077 131.6833 0040949 243.7163 115.9851 15.01194004680909 GOMX-1 1 39430U 13066Q 26169.82020104 .00001688 00000+0 25762-3 0 9993 2 39430 97.6474 10.1797 0130146 72.3376 289.1992 14.69466264670153 CUBEBUG-2 (LO-74) 1 39440U 13066AA 26169.80481595 .00003935 00000+0 36475-3 0 9997 2 39440 97.8910 118.7896 0058293 23.8630 336.5272 14.93773469677231 FUNCUBE-1 (AO-73) 1 39444U 13066AE 26169.64748372 .00004840 00000+0 30180-3 0 9995 2 39444 97.8281 141.1237 0035755 195.6832 164.3291 15.09504260679885 UWE-3 1 39446U 13066AG 26169.61929382 .00003597 00000+0 31072-3 0 9995 2 39446 97.8699 125.7026 0047372 316.3669 43.3811 14.97034048677792 UNISAT-6 1 40012U 14033C 26169.41074502 .00001947 00000+0 21275-3 0 9995 2 40012 97.7883 322.1006 0046200 65.3888 295.2132 14.88251057646343 DUCHIFAT-1 1 40021U 14033M 26169.68438844 .00088318 00000+0 89916-3 0 9990 2 40021 98.0447 229.0553 0002814 113.8680 246.2872 15.64848252655988 QB50P1 1 40025U 14033R 26169.60000341 .00006188 00000+0 30544-3 0 9991 2 40025 98.0962 180.8450 0007983 209.9659 150.1117 15.18277268653243 LILACSAT-2 1 40908U 15049K 26169.88469556 .00013972 00000+0 23796-3 0 9996 2 40908 97.4640 206.7910 0005622 236.9424 123.1288 15.51490742596017 FOX-1A (AO-85) 1 40967U 15058D 26169.69405078 .00001823 00000+0 17186-3 0 9997 2 40967 64.7758 274.3012 0130534 56.0068 305.3365 14.90975407113797 CAS-2T & KS-1Q 1 41847U 16066G 26169.76436007 .00001345 00000+0 19556-3 0 9991 2 41847 98.3822 245.4827 0342837 124.7096 238.6899 14.44698862505025 RADFXSAT (FOX-1B) 1 43017U 17073E 26168.60486874 .00005679 00000+0 24962-3 0 9991 2 43017 97.4696 35.8108 0149538 327.7970 31.4193 15.12722439465459 DIWATA-2B 1 43678U 18084H 26169.83706674 .00002190 00000+0 17900-3 0 9995 2 43678 98.1180 6.1167 0012604 164.7913 195.3691 15.00459356416465 ES'HAIL 2 1 43700U 18090A 26169.85065832 .00000138 00000+0 00000+0 0 9993 2 43700 0.0147 33.9705 0001717 90.4827 114.6450 1.00271603 27696 FOX-1CLIFF (AO-95) 1 43770U 18099N 26169.71623000 .00009199 00000+0 35232-3 0 9996 2 43770 97.4376 229.9567 0007800 352.1170 7.9945 15.26738292413459 ITASAT 1 43786U 18099AE 26169.86608692 .00004904 00000+0 23668-3 0 9998 2 43786 97.4023 221.3444 0011915 354.4403 5.6697 15.19074209413161 JY1SAT (JO-97) 1 43803U 18099AX 26169.72688060 .00013287 00000+0 40994-3 0 9995 2 43803 97.4126 232.5664 0004451 255.1384 104.9366 15.33692611413867 UWE-4 1 43880U 18111E 26169.76835926 .00027476 00000+0 55973-3 0 9992 2 43880 97.5851 98.2321 0005260 335.4333 24.6665 15.46206755411020 TIANYAN 01 1 44881U 19093C 26169.86219211 -.00000002 00000+0 58455-5 0 9995 2 44881 97.7532 242.0535 0015070 81.7877 278.5047 14.86519282351662 RS-44 & BREEZE-KM R/B 1 44909U 19096E 26169.72518458 .00000008 00000+0 -19365-4 0 9991 2 44909 82.5220 338.6827 0218230 140.5822 221.1390 12.79748853302548 SALSAT 1 46495U 20068K 26169.45370448 .00006100 00000+0 21401-3 0 9990 2 46495 97.8850 172.5954 0007987 302.8690 57.1780 15.29814902315557 XW-3 (CAS-9) 1 50466U 21131B 26169.85950961 .00000357 00000+0 12393-3 0 9991 2 50466 98.4986 262.2401 0005388 93.0611 267.1195 14.41358642235355 GREENCUBE (IO-117) 1 53109U 22080E 26169.42938941 -.00000003 00000+0 00000+0 0 9996 2 53109 70.1442 297.8130 0008904 289.4279 70.5418 6.42583246 92141 UMKA 1 (RS40S) 1 57172U 23091G 26169.80460954 .00004538 00000+0 20833-3 0 9995 2 57172 97.5046 228.4957 0014282 112.6040 247.6707 15.20833066164258 CUBESX-HSE 3 (RS42S) 1 57178U 23091N 26169.80756742 .00010391 00000+0 34606-3 0 9991 2 57178 97.5087 235.4152 0012005 89.9269 270.3348 15.31248189164672 MONITOR-3 (RS58S) 1 57180U 23091Q 26169.83563440 .00008087 00000+0 29927-3 0 9997 2 57180 97.5077 233.2937 0013086 95.7214 264.5518 15.27868513164540 MONITOR-4 (RS57S) 1 57182U 23091S 26169.81459938 .00008428 00000+0 31095-3 0 9991 2 57182 97.5073 233.2441 0013071 96.1686 264.1042 15.27954436164548 MONITOR-2 (RS39S) 1 57184U 23091U 26169.82789370 .00003963 00000+0 19275-3 0 9995 2 57184 97.5068 228.1003 0012768 106.1632 254.1008 15.18923152164201 SVYATOBOR 1 (RS60S) 1 57187U 23091X 26169.82909054 .00006733 00000+0 25933-3 0 9997 2 57187 97.5086 233.6552 0010842 89.6350 270.6130 15.26637750164560 VIZARD-METEO (RS38S) 1 57189U 23091Z 26169.84136795 .00012276 00000+0 35131-3 0 9995 2 57189 97.5088 239.3596 0008161 72.8457 287.3680 15.36068617164946 POLYTECH-UNIVERSE 3 (R*) 1 57191U 23091AB 26169.85487794 .00004079 00000+0 19683-3 0 9993 2 57191 97.5044 227.6317 0016941 121.4548 238.8345 15.19125707164202 UTMN 2 (RS27S) 1 57203U 23091AP 26169.82426919 .00009964 00000+0 32374-3 0 9996 2 57203 97.5083 237.0682 0009170 78.8611 281.3661 15.32084540164793 KUZGTU 1 (RS47S) 1 57217U 23091AV 26169.86550135 .00009294 00000+0 32301-3 0 9999 2 57217 97.5059 234.3626 0012275 92.8486 267.4159 15.29892478164638 SONATE-2 1 59112U 24043Q 26169.67901345 .00030619 00000+0 39665-3 0 9990 2 59112 97.5539 320.1662 0007133 190.3549 169.7561 15.58811253128121 MESAT1 1 60209U 24125G 26169.32249336 .00046639 00000+0 50655-3 0 9998 2 60209 97.2281 26.8304 0009668 199.4839 160.6052 15.63304730109746 OOV-CUBE (TUBSAT-30) 1 60240U 24128F 26169.58586730 .00001416 00000+0 11902-3 0 9992 2 60240 61.9932 220.6959 0044464 134.0792 226.3973 15.02778203106324 COLIBRI-S (RS67S) 1 61746U 24199M 26169.80743289 .00016036 00000+0 31058-3 0 9999 2 61746 97.2987 43.6760 0006265 270.7776 89.2757 15.47777605137669 HORS 3 (RS81S) 1 61753U 24199U 26169.82695130 .00029010 00000+0 43212-3 0 9991 2 61753 97.2969 45.6998 0003777 267.5267 92.5555 15.55067661137819 HORS 4 (RS82S) 1 61754U 24199V 26169.84673757 .00035990 00000+0 44886-3 0 9997 2 61754 97.2914 46.9325 0003256 247.1480 112.9433 15.59807902137907 SIT-2086 1 61764U 24199AF 26169.80718848 .00028199 00000+0 44983-3 0 9996 2 61764 97.2926 46.1506 0004757 241.8589 118.2184 15.53176482134682 HYPERVIEW 1G (RS66S) 1 61772U 24199AP 26169.52300580 .00119986 00000+0 76128-3 0 9995 2 61772 97.2864 49.3091 0004092 213.0172 147.0839 15.76152791134888 ALTAIR (RS65S) 1 61779U 24199AW 26169.80467248 .00006374 00000+0 17781-3 0 9994 2 61779 97.3023 39.1446 0010990 304.6298 55.3910 15.37042356137363 ASRTU-1 (AO-123) 1 61781U 24199AY 26169.85915098 .00006296 00000+0 18330-3 0 9997 2 61781 97.2994 38.5146 0012169 307.4098 52.6038 15.35695532134187 SAMSAT-IONOSPHERE (RS7*) 1 61784U 24199BB 26169.85815500 .00034423 00000+0 46376-3 0 9991 2 61784 97.2936 45.7847 0005933 267.6417 92.4159 15.57746683137825 RTU MIREA 1 (RS51S) 1 61785U 24199BC 26169.87884925 .00045122 00000+0 53176-3 0 9995 2 61785 97.2924 46.6462 0005582 258.2648 101.7983 15.61238140134733 TEVEL2-4 1 63213U 25052D 26169.16026822 .00013925 00000+0 41679-3 0 9999 2 63213 97.3899 65.5534 0004892 101.1057 259.0736 15.34638877 70267 TEVEL2-5 1 63214U 25052E 26169.24609025 .00014381 00000+0 43269-3 0 9995 2 63214 97.3896 65.5869 0004830 102.4501 257.7282 15.34468179 70274 TEVEL2-6 1 63215U 25052F 26169.64972185 .00014665 00000+0 44149-3 0 9993 2 63215 97.3902 65.9753 0004754 102.3896 257.7879 15.34444200 70338 TEVEL2-1 1 63217U 25052H 26167.98311732 .00015254 00000+0 46759-3 0 9999 2 63217 97.3878 63.9315 0004776 114.0246 246.1497 15.33862790 70062 TEVEL2-3 1 63218U 25052J 26169.21721413 .00013636 00000+0 41717-3 0 9990 2 63218 97.3876 65.1876 0004784 111.6864 248.4888 15.33951855 70256 TEVEL2-2 1 63219U 25052K 26169.61432708 .00013531 00000+0 41444-3 0 9992 2 63219 97.3876 65.5651 0004772 111.0401 249.1353 15.33915374 70318 TEVEL2-9 1 63237U 25052AD 26169.20167564 .00012483 00000+0 40696-3 0 9995 2 63237 97.3936 64.5254 0007883 127.9534 232.2421 15.31922489 70189 TEVEL2-7 1 63238U 25052AE 26169.70010282 .00011996 00000+0 39463-3 0 9993 2 63238 97.3937 64.9383 0008007 127.0437 233.1538 15.31638838 70259 TEVEL2-8 1 63239U 25052AF 26169.64303769 .00012666 00000+0 41670-3 0 9990 2 63239 97.3938 64.8582 0007990 127.5686 232.6282 15.31622115 70242 INNOSAT 16 (RS92S7) 1 64878U 25155C 26169.83873159 .00004522 00000+0 18134-3 0 9991 2 64878 97.4567 136.9612 0010739 169.7644 190.3814 15.25470587 80927 GEOSCAN 6 (RS92S6) 1 64879U 25155D 26169.81643657 .00007755 00000+0 26797-3 0 9993 2 64879 97.4560 138.3745 0008560 157.2080 202.9542 15.30176396 81015 GEOSCAN 1 (RS92S1) 1 64880U 25155E 26169.81825183 .00008365 00000+0 28357-3 0 9993 2 64880 97.4557 138.5257 0008488 156.9214 203.2410 15.30773323 81029 239ALFEROV (RS61S) 1 64881U 25155F 26169.85083568 .00011270 00000+0 35582-3 0 9998 2 64881 97.4558 139.1255 0008222 153.8262 206.3397 15.32976230 81067 GEOSCAN 2 (RS92S2) 1 64890U 25155Q 26169.81164753 .00008624 00000+0 28984-3 0 9997 2 64890 97.4556 138.6723 0008284 144.6151 215.5641 15.31044892 81032 GEOSCAN 5 (RS92S5) 1 64891U 25155R 26169.83951605 .00010724 00000+0 33548-3 0 9996 2 64891 97.4550 139.2522 0006981 157.4428 202.7122 15.33293019 81077 GEOSCAN 4 (RS92S4) 1 64892U 25155S 26169.88879668 .00010700 00000+0 33311-3 0 9992 2 64892 97.4554 139.3509 0007042 156.9135 203.2425 15.33449245 81083 GEOSCAN 3 (RS92S3) 1 64893U 25155T 26169.88735008 .00013201 00000+0 38524-3 0 9992 2 64893 97.4542 139.7840 0006994 155.2602 204.8978 15.35442292 81110 INNOSAT 3 (RS92S0) 1 64894U 25155U 26169.86816610 .00030253 00000+0 66518-3 0 9990 2 64894 97.4490 141.4044 0006795 147.0591 213.1082 15.43925236 81228 KNACKSAT-2 1 67683U 98067XZ 26168.60673955 .00040994 00000+0 49993-3 0 9996 2 67683 51.6314 292.3670 0009088 217.1010 142.9356 15.60014370 20344